Back to catalog

STARLINK-36215

AliveCommunicationsVLEO
NORAD 67100·PAYLOAD·🇺🇸 United States

Launched Dec 14, 2025 from Vandenberg Space Force Base

Loading…

Next Passes (next 24 hours)

TLE

FreshSource: CelesTrak SupGP

Epoch: Sep 14, 2026, 20:53 UTC

1 67100C 25298AB  26257.87062500  .00070254  00000+0  58870-2 0  2574
2 67100  69.9998 257.4557 0003574 267.2647 136.1449 14.98297744    18

Track STARLINK-36215 in real time with AllMySat

Download on the App Store